Location: Asheville, NC
(35.6000°N, 82.5500°W)
Time: 13:37:06
(UTC-05:00)

XW-2B - Pass Details

Date: 14 February 2018
Orbit: 509 x 531 km, 97.5° (Epoch: 22 February)

Event Time Altitude Azimuth Distance (km) Brightness Sun altitude
Rises 06:26:02 0° 14° (NNE) 2,623 ? -11.2°
Reaches altitude 10° 06:28:08 10° 17° (NNE) 1,735 ? -10.7°
Maximum altitude 06:31:52 70° 101° (E) 547 ? -10.0°
Drops below altitude 10° 06:35:35 10° 185° (S) 1,731 ? -9.3°
Sets 06:37:41 0° 188° (S) 2,617 ? -8.8°
